Zurück zum Katalog

COSMOS 1719

AktivMilitärLEO
NORAD 16452·PAYLOAD·🇷🇺 Russia

Gestartet Jan 9, 1986 von Plesetsk Cosmodrome

Loading…

Nächste Überflüge (nächste 24 Stunden)

TLE

AktuellSource: Space-Track

Epoche: Sep 14, 2026, 20:07 UTC

1 16452U 86002D   26257.83850139 -.00000013  00000-0  20668-4 0  9994
2 16452  73.9886 209.2464 0019480 237.3713 149.9475 12.48881313854708

Verfolge COSMOS 1719 in Echtzeit mit AllMySat

Download on the App Store